| time (UTC) | temp C | wind direction | speed KPH | gust KPH | rain 1hr cm | rain 24hr cm | rain mn cm | humidity % | barometer mb |
| 20260504202540 | 21 | 272 | 3.2 | 22.5 | 0.00 | 0.00 | 0.00 | 39 | 1007.2 |
| 20260504202039 | 21 | 214 | 6.4 | 22.5 | 0.00 | 0.00 | 0.00 | 39 | 1007.2 |
| 20260504201547 | 21 | 273 | 6.4 | 17.7 | 0.00 | 0.00 | 0.00 | 40 | 1007.2 |
| 20260504201039 | 22 | 211 | 3.2 | 25.7 | 0.00 | 0.00 | 0.00 | 39 | 1007.3 |
| 20260504200538 | 21 | 273 | 9.7 | 25.7 | 0.00 | 0.00 | 0.00 | 39 | 1007.3 |
| 20260504200045 | 22 | 256 | 4.8 | 22.5 | 0.00 | 0.00 | 0.00 | 38 | 1007.4 |
| 20260504195538 | 21 | 164 | 3.2 | 17.7 | 0.00 | 0.00 | 0.00 | 40 | 1007.5 |
| 20260504195038 | 21 | 185 | 4.8 | 27.4 | 0.00 | 0.00 | 0.00 | 42 | 1007.4 |
| 20260504194550 | 20 | 263 | 11.3 | 27.4 | 0.00 | 0.00 | 0.00 | 41 | 1007.5 |
| 20260504194039 | 21 | 193 | 3.2 | 20.9 | 0.00 | 0.00 | 0.00 | 43 | 1007.5 |
| 20260504193539 | 21 | 257 | 8.0 | 25.7 | 0.00 | 0.00 | 0.00 | 37 | 1007.7 |
| 20260504193044 | 20 | 169 | 8.0 | 25.7 | 0.00 | 0.00 | 0.00 | 37 | 1007.6 |
| 20260504192538 | 21 | 254 | 8.0 | 22.5 | 0.00 | 0.00 | 0.00 | 42 | 1007.7 |
| 20260504192039 | 21 | 240 | 9.7 | 22.5 | 0.00 | 0.00 | 0.00 | 41 | 1007.7 |
| 20260504191607 | 21 | 165 | 8.0 | 22.5 | 0.00 | 0.00 | 0.00 | 38 | 1007.7 |
| 20260504191039 | 21 | 263 | 8.0 | 19.3 | 0.00 | 0.00 | 0.00 | 38 | 1007.8 |
| 20260504190539 | 21 | 215 | 6.4 | 19.3 | 0.00 | 0.00 | 0.00 | 42 | 1007.9 |
| 20260504190059 | 21 | 160 | 6.4 | 19.3 | 0.00 | 0.00 | 0.00 | 42 | 1007.8 |
| 20260504185538 | 21 | 254 | 3.2 | 19.3 | 0.00 | 0.00 | 0.00 | 40 | 1007.8 |
| 20260504185039 | 21 | 0 | 8.0 | 24.1 | 0.00 | 0.00 | 0.00 | 44 | 1007.9 |
| 20260504184553 | 21 | 237 | 11.3 | 24.1 | 0.00 | 0.00 | 0.00 | 44 | 1008.0 |
| 20260504184039 | 21 | 243 | 8.0 | 17.7 | 0.00 | 0.00 | 0.00 | 41 | 1008.0 |
| 20260504183537 | 21 | 288 | 6.4 | 24.1 | 0.00 | 0.00 | 0.00 | 45 | 1008.2 |
| 20260504183051 | 20 | 197 | 6.4 | 25.7 | 0.00 | 0.00 | 0.00 | 38 | 1008.2 |
| 20260504182540 | 20 | 195 | 11.3 | 25.7 | 0.00 | 0.00 | 0.00 | 41 | 1008.3 |
| 20260504182106 | 21 | 187 | 11.3 | 20.9 | 0.00 | 0.00 | 0.00 | 41 | 1008.2 |
| 20260504181559 | 21 | 252 | 3.2 | 20.9 | 0.00 | 0.00 | 0.00 | 45 | 1008.2 |
| 20260504181038 | 20 | 245 | 9.7 | 25.7 | 0.00 | 0.00 | 0.00 | 40 | 1008.2 |
| 20260504180539 | 20 | 0 | 8.0 | 25.7 | 0.00 | 0.00 | 0.00 | 45 | 1008.2 |
| 20260504180044 | 21 | 279 | 4.8 | 14.5 | 0.00 | 0.00 | 0.00 | 43 | 1008.4 |
| 20260504175539 | 21 | 290 | 3.2 | 25.7 | 0.00 | 0.00 | 0.00 | 42 | 1008.4 |
| 20260504175042 | 20 | 269 | 8.0 | 25.7 | 0.00 | 0.00 | 0.00 | 42 | 1008.5 |
| 20260504174548 | 19 | 215 | 9.7 | 22.5 | 0.00 | 0.00 | 0.00 | 43 | 1008.6 |
| 20260504174039 | 20 | 261 | 9.7 | 22.5 | 0.00 | 0.00 | 0.00 | 39 | 1008.6 |
| 20260504173538 | 20 | 266 | 6.4 | 22.5 | 0.00 | 0.00 | 0.00 | 46 | 1008.5 |
| 20260504173053 | 19 | 269 | 6.4 | 22.5 | 0.00 | 0.00 | 0.00 | 43 | 1008.6 |
| 20260504172538 | 20 | 260 | 8.0 | 19.3 | 0.00 | 0.00 | 0.00 | 40 | 1008.7 |
| 20260504172038 | 20 | 0 | 3.2 | 24.1 | 0.00 | 0.00 | 0.00 | 44 | 1008.7 |
| 20260504171548 | 20 | 277 | 8.0 | 45.1 | 0.00 | 0.00 | 0.00 | 44 | 1008.8 |
| 20260504171039 | 20 | 244 | 9.7 | 45.1 | 0.00 | 0.00 | 0.00 | 44 | 1008.9 |
| 20260504170539 | 19 | 146 | 8.0 | 19.3 | 0.00 | 0.00 | 0.00 | 48 | 1008.9 |
| 20260504151039 | 17 | 152 | 11.3 | 19.3 | 0.00 | 0.00 | 0.00 | 43 | 1010.1 |
| 20260504150608 | 17 | 273 | 6.4 | 20.9 | 0.00 | 0.00 | 0.00 | 46 | 1010.1 |
| 20260504141038 | 16 | 215 | 6.4 | 27.4 | 0.00 | 0.00 | 0.00 | 46 | 1010.8 |
| 20260504140539 | 16 | 241 | 4.8 | 27.4 | 0.00 | 0.00 | 0.00 | 50 | 1010.7 |
| 20260504130539 | 13 | 225 | 8.0 | 16.1 | 0.00 | 0.00 | 0.00 | 56 | 1011.3 |
| 20260504110536 | 2 | 0 | 0.0 | 0.0 | 0.00 | 0.00 | 0.00 | 94 | 1011.8 |
| 20260504100536 | 0 | 0 | 0.0 | 0.0 | 0.00 | 0.00 | 0.00 | 93 | 1011.6 |
| 20260504081547 | 1 | 0 | 0.0 | 0.0 | 0.00 | 0.00 | 0.00 | 92 | 1011.2 |
| 20260504081036 | 1 | 0 | 0.0 | 0.0 | 0.00 | 0.00 | 0.00 | 92 | 1011.3 |
| 20260504080538 | 1 | 0 | 0.0 | 0.0 | 0.00 | 0.00 | 0.00 | 92 | 1011.3 |
| 20260504050536 | 2 | 0 | 0.0 | 0.0 | 0.00 | 0.00 | 0.00 | 90 | 1010.8 |
| 20260504045544 | 2 | 0 | 0.0 | 0.0 | 0.00 | 0.00 | 0.00 | 90 | 1010.8 |
| 20260504045036 | 2 | 0 | 0.0 | 0.0 | 0.00 | 0.00 | 0.00 | 90 | 1010.9 |
| 20260504044555 | 2 | 0 | 0.0 | 0.0 | 0.00 | 0.00 | 0.00 | 90 | 1011.0 |
| 20260504044039 | 2 | 0 | 0.0 | 0.0 | 0.00 | 0.00 | 0.00 | 90 | 1011.1 |
| 20260504043541 | 2 | 0 | 0.0 | 0.0 | 0.00 | 0.00 | 0.00 | 90 | 1011.1 |
| 20260504043046 | 2 | 0 | 0.0 | 0.0 | 0.00 | 0.00 | 0.00 | 90 | 1011.1 |
| 20260504042538 | 2 | 0 | 0.0 | 0.0 | 0.00 | 0.00 | 0.00 | 90 | 1011.2 |
| 20260504042039 | 2 | 0 | 0.0 | 0.0 | 0.00 | 0.00 | 0.00 | 90 | 1011.2 |
| 20260504041546 | 2 | 0 | 0.0 | 0.0 | 0.00 | 0.00 | 0.00 | 90 | 1011.1 |
| 20260504041038 | 2 | 0 | 0.0 | 0.0 | 0.00 | 0.00 | 0.00 | 89 | 1011.1 |
| 20260504040538 | 2 | 0 | 0.0 | 0.0 | 0.00 | 0.00 | 0.00 | 89 | 1011.0 |
| 20260504040111 | 2 | 0 | 0.0 | 0.0 | 0.00 | 0.00 | 0.00 | 88 | 1011.1 |
| 20260504035540 | 2 | 0 | 0.0 | 0.0 | 0.00 | 0.00 | 0.00 | 88 | 1011.0 |
| 20260504035038 | 2 | 0 | 0.0 | 0.0 | 0.00 | 0.00 | 0.00 | 87 | 1011.0 |
| 20260504034544 | 2 | 0 | 0.0 | 0.0 | 0.00 | 0.00 | 0.00 | 87 | 1011.0 |
| 20260504034039 | 2 | 0 | 0.0 | 0.0 | 0.00 | 0.00 | 0.00 | 86 | 1011.0 |
| 20260504033541 | 2 | 0 | 0.0 | 0.0 | 0.00 | 0.00 | 0.00 | 87 | 1010.9 |
| 20260504033048 | 2 | 0 | 0.0 | 0.0 | 0.00 | 0.00 | 0.00 | 86 | 1010.9 |
| 20260504032541 | 2 | 0 | 0.0 | 0.0 | 0.00 | 0.00 | 0.00 | 85 | 1011.0 |
| 20260504032035 | 2 | 0 | 0.0 | 0.0 | 0.00 | 0.00 | 0.00 | 85 | 1011.0 |
| 20260504031555 | 2 | 0 | 0.0 | 0.0 | 0.00 | 0.00 | 0.00 | 85 | 1011.0 |
| 20260504031036 | 3 | 0 | 0.0 | 0.0 | 0.00 | 0.00 | 0.00 | 85 | 1010.8 |
| 20260504030536 | 3 | 0 | 0.0 | 0.0 | 0.00 | 0.00 | 0.00 | 85 | 1010.8 |
| 20260504030050 | 3 | 0 | 0.0 | 0.0 | 0.00 | 0.00 | 0.00 | 85 | 1010.7 |
| 20260504025537 | 3 | 0 | 0.0 | 0.0 | 0.00 | 0.00 | 0.00 | 84 | 1010.6 |
| 20260504025036 | 3 | 0 | 0.0 | 0.0 | 0.00 | 0.00 | 0.00 | 84 | 1010.6 |
| 20260504024546 | 3 | 0 | 0.0 | 0.0 | 0.00 | 0.00 | 0.00 | 83 | 1010.7 |
| 20260504024038 | 3 | 0 | 0.0 | 1.6 | 0.00 | 0.00 | 0.00 | 82 | 1010.7 |
| 20260504023538 | 3 | 0 | 0.0 | 1.6 | 0.00 | 0.00 | 0.00 | 81 | 1010.7 |
| 20260504023050 | 4 | 0 | 0.0 | 0.0 | 0.00 | 0.00 | 0.00 | 81 | 1010.7 |
| 20260504022539 | 4 | 0 | 0.0 | 0.0 | 0.00 | 0.00 | 0.00 | 81 | 1010.8 |
| 20260504022038 | 4 | 0 | 0.0 | 0.0 | 0.00 | 0.00 | 0.00 | 80 | 1010.7 |
| 20260504021545 | 4 | 0 | 0.0 | 0.0 | 0.00 | 0.00 | 0.00 | 80 | 1010.7 |
| 20260504021039 | 5 | 0 | 0.0 | 1.6 | 0.00 | 0.00 | 0.00 | 80 | 1010.7 |
| 20260504020539 | 5 | 0 | 0.0 | 1.6 | 0.00 | 0.00 | 0.00 | 79 | 1010.7 |
| 20260504020055 | 5 | 0 | 0.0 | 0.0 | 0.00 | 0.00 | 0.00 | 79 | 1010.7 |
| 20260504015538 | 5 | 0 | 0.0 | 0.0 | 0.00 | 0.00 | 0.00 | 79 | 1010.7 |
| 20260504015036 | 5 | 0 | 0.0 | 1.6 | 0.00 | 0.00 | 0.00 | 78 | 1010.7 |
| 20260504014542 | 5 | 0 | 0.0 | 3.2 | 0.00 | 0.00 | 0.00 | 77 | 1010.6 |
| 20260504014035 | 6 | 0 | 0.0 | 3.2 | 0.00 | 0.00 | 0.00 | 77 | 1010.6 |
| 20260504013538 | 6 | 0 | 0.0 | 3.2 | 0.00 | 0.00 | 0.00 | 76 | 1010.5 |
| 20260504013046 | 6 | 0 | 0.0 | 0.0 | 0.00 | 0.00 | 0.00 | 75 | 1010.5 |
| 20260504012536 | 6 | 0 | 0.0 | 0.0 | 0.00 | 0.00 | 0.00 | 74 | 1010.5 |
| 20260504012038 | 6 | 0 | 0.0 | 0.0 | 0.00 | 0.00 | 0.00 | 73 | 1010.5 |
| 20260504011549 | 6 | 0 | 0.0 | 0.0 | 0.00 | 0.00 | 0.00 | 72 | 1010.4 |
| 20260504011038 | 7 | 0 | 0.0 | 0.0 | 0.00 | 0.00 | 0.00 | 73 | 1010.4 |
| 20260504010535 | 7 | 0 | 0.0 | 1.6 | 0.00 | 0.00 | 0.00 | 72 | 1010.4 |
| 20260504010050 | 7 | 0 | 0.0 | 1.6 | 0.00 | 0.00 | 0.00 | 72 | 1010.2 |
| 20260504005538 | 7 | 0 | 0.0 | 1.6 | 0.00 | 0.00 | 0.00 | 71 | 1010.3 |
| 20260504005042 | 7 | 0 | 0.0 | 1.6 | 0.00 | 0.00 | 0.00 | 69 | 1010.2 |
| 20260504004545 | 7 | 0 | 0.0 | 1.6 | 0.00 | 0.00 | 0.00 | 69 | 1010.1 |
| 20260504004040 | 8 | 0 | 0.0 | 0.0 | 0.00 | 0.00 | 0.00 | 68 | 1010.1 |
| 20260504003541 | 8 | 0 | 0.0 | 0.0 | 0.00 | 0.00 | 0.00 | 67 | 1010.0 |
| 20260504003044 | 8 | 0 | 0.0 | 0.0 | 0.00 | 0.00 | 0.00 | 64 | 1010.0 |
| 20260504002536 | 9 | 0 | 0.0 | 0.0 | 0.00 | 0.00 | 0.00 | 64 | 1009.9 |
| 20260504002037 | 9 | 0 | 0.0 | 0.0 | 0.00 | 0.00 | 0.00 | 60 | 1009.8 |
| 20260504001553 | 10 | 0 | 0.0 | 0.0 | 0.00 | 0.00 | 0.00 | 58 | 1009.8 |
| 20260504001036 | 10 | 0 | 0.0 | 1.6 | 0.00 | 0.00 | 0.00 | 62 | 1009.7 |
| 20260504000535 | 10 | 0 | 0.0 | 4.8 | 0.00 | 0.00 | 0.00 | 59 | 1009.6 |
| 20260504000050 | 10 | 0 | 0.0 | 4.8 | 0.00 | 0.00 | 0.00 | 56 | 1009.6 |
| 20260503235539 | 10 | 0 | 0.0 | 4.8 | 0.00 | 0.00 | 0.00 | 49 | 1009.5 |
| 20260503235038 | 11 | 0 | 0.0 | 3.2 | 0.00 | 0.00 | 0.00 | 51 | 1009.4 |
| 20260503234612 | 11 | 0 | 0.0 | 6.4 | 0.00 | 0.00 | 0.00 | 52 | 1009.3 |
| 20260503234041 | 11 | 0 | 0.0 | 6.4 | 0.00 | 0.00 | 0.00 | 55 | 1009.3 |
| 20260503233541 | 11 | 0 | 1.6 | 6.4 | 0.00 | 0.00 | 0.00 | 49 | 1009.3 |
| 20260503233049 | 11 | 0 | 0.0 | 0.0 | 0.00 | 0.00 | 0.00 | 54 | 1009.3 |
| 20260503232535 | 11 | 0 | 0.0 | 1.6 | 0.00 | 0.00 | 0.00 | 48 | 1009.3 |
| 20260503232039 | 11 | 0 | 0.0 | 1.6 | 0.00 | 0.00 | 0.00 | 52 | 1009.2 |
| 20260503231552 | 11 | 0 | 0.0 | 0.0 | 0.00 | 0.00 | 0.00 | 54 | 1009.1 |
| 20260503231038 | 12 | 0 | 0.0 | 1.6 | 0.00 | 0.00 | 0.00 | 50 | 1009.1 |
| 20260503230542 | 12 | 0 | 0.0 | 3.2 | 0.00 | 0.00 | 0.00 | 47 | 1009.0 |
| 20260503230051 | 12 | 0 | 0.0 | 3.2 | 0.00 | 0.00 | 0.00 | 50 | 1009.0 |
| 20260503225539 | 12 | 0 | 0.0 | 1.6 | 0.00 | 0.00 | 0.00 | 49 | 1008.9 |
| 20260503225036 | 12 | 0 | 0.0 | 1.6 | 0.00 | 0.00 | 0.00 | 47 | 1008.9 |
| 20260503224548 | 12 | 0 | 0.0 | 1.6 | 0.00 | 0.00 | 0.00 | 45 | 1008.9 |
| 20260503224040 | 12 | 0 | 0.0 | 3.2 | 0.00 | 0.00 | 0.00 | 45 | 1008.9 |
| 20260503223539 | 12 | 0 | 0.0 | 4.8 | 0.00 | 0.00 | 0.00 | 42 | 1008.8 |
| 20260503223051 | 12 | 164 | 0.0 | 9.7 | 0.00 | 0.00 | 0.00 | 46 | 1008.8 |
| 20260503222543 | 13 | 53 | 1.6 | 12.9 | 0.00 | 0.00 | 0.00 | 38 | 1008.7 |
| 20260503222035 | 14 | 0 | 4.8 | 12.9 | 0.00 | 0.00 | 0.00 | 35 | 1008.7 |
| 20260503221557 | 14 | 53 | 1.6 | 9.7 | 0.00 | 0.00 | 0.00 | 35 | 1008.7 |
| 20260503221036 | 14 | 292 | 3.2 | 14.5 | 0.00 | 0.00 | 0.00 | 38 | 1008.7 |
| 20260503220539 | 14 | 0 | 6.4 | 14.5 | 0.00 | 0.00 | 0.00 | 34 | 1008.7 |
| 20260503220057 | 14 | 273 | 8.0 | 14.5 | 0.00 | 0.00 | 0.00 | 35 | 1008.8 |
| 20260503215539 | 15 | 279 | 3.2 | 8.0 | 0.00 | 0.00 | 0.00 | 35 | 1008.8 |
| 20260503215035 | 15 | 297 | 0.0 | 6.4 | 0.00 | 0.00 | 0.00 | 37 | 1008.7 |
| 20260503214547 | 14 | 247 | 1.6 | 16.1 | 0.00 | 0.00 | 0.00 | 39 | 1008.6 |
| 20260503214039 | 14 | 104 | 1.6 | 16.1 | 0.00 | 0.00 | 0.00 | 36 | 1008.7 |
| 20260503213539 | 15 | 294 | 6.4 | 14.5 | 0.00 | 0.00 | 0.00 | 34 | 1008.7 |
| 20260503213048 | 15 | 252 | 1.6 | 16.1 | 0.00 | 0.00 | 0.00 | 35 | 1008.8 |
| 20260503212539 | 15 | 347 | 1.6 | 16.1 | 0.00 | 0.00 | 0.00 | 33 | 1008.8 |
| 20260503212038 | 15 | 266 | 3.2 | 16.1 | 0.00 | 0.00 | 0.00 | 36 | 1008.7 |
| 20260503211544 | 14 | 288 | 1.6 | 14.5 | 0.00 | 0.00 | 0.00 | 36 | 1008.6 |
| 20260503211040 | 15 | 10 | 3.2 | 14.5 | 0.00 | 0.00 | 0.00 | 34 | 1008.7 |
| 20260503210539 | 15 | 266 | 4.8 | 11.3 | 0.00 | 0.00 | 0.00 | 35 | 1008.7 |
| 20260503210046 | 15 | 288 | 1.6 | 11.3 | 0.00 | 0.00 | 0.00 | 37 | 1008.6 |
| 20260503205541 | 15 | 266 | 1.6 | 11.3 | 0.00 | 0.00 | 0.00 | 39 | 1008.7 |
| 20260503205039 | 15 | 344 | 1.6 | 14.5 | 0.00 | 0.00 | 0.00 | 38 | 1008.7 |
| 20260503204547 | 15 | 267 | 4.8 | 14.5 | 0.00 | 0.00 | 0.00 | 43 | 1008.8 |
| 20260503204038 | 15 | 252 | 3.2 | 14.5 | 0.00 | 0.00 | 0.00 | 40 | 1008.8 |
| 20260503203536 | 14 | 0 | 1.6 | 9.7 | 0.00 | 0.00 | 0.00 | 43 | 1008.8 |
| 20260503203055 | 13 | 0 | 1.6 | 16.1 | 0.00 | 0.00 | 0.00 | 41 | 1008.8 |